Location: Montreal
(45.5087°N, 73.5540°W)
Time: 17:24:44
(UTC-04:00)

Envisat - Pass Details

Date: 04 February 2023
Orbit: 763 x 765 km, 98.2° (Epoch: 20 March)

Event Time Altitude Azimuth Distance (km) Brightness Sun altitude
Rises 05:05:37 0° 4° (N) 3,243 6.3 -22.4°
Reaches altitude 10° 05:08:11 10° 353° (N) 2,312 5.4 -21.9°
Enters shadow 05:10:13 21° 336° (NNW) 1,696 4.5 -21.6°
